Home > Weather > Kolkata > Past weeks

Flag for India Weather for the Past 2 Weeks in Kolkata, West Bengal, India

Now
84 °F

Scattered clouds.


Feels Like: 87 °F
Forecast: 68 / 82 °F
Wind: 9 mph from Southwest

Location: Calcutta / Dum Dum

Current Time: Feb 8, 2016 at 4:02:14 PM

Latest Report: Feb 8, 2016 at 3:30 PM


Visibility: 2 mi

Pressure: 29.83 "Hg

Humidity: 55%

Dew point: 66 °F

Location of KolkataLocation

Historic Weather in Kolkata — Graph

°F

Kolkata Temperature Yesterday

Maximum temperature yesterday: 84 °F (at 2:30 PM)
Minimum temperature yesterday: 61 °F (at 2:30 AM)
Average temperature yesterday: 72 °F

High & Low Weather Summary for the Past Weeks

 TemperatureHumidityPressure
High86 °F (Jan 31, 2:30 PM)100% (Jan 31, 1:30 AM)30.07 "Hg (Jan 31, 1:30 AM)
Low52 °F (Jan 25, 1:00 AM)27% (Feb 1, 1:00 PM)29.86 "Hg (Jan 27, 3:00 PM)
Average70 °F70%29.95 "Hg
* Reported Jan 24 2:30 PM — Feb 8 3:00 PM, Kolkata, Weather by CustomWeather, © 2016

Note: Actual official high and low records may vary slightly from our data, if they occured in-between our weather recording intervals... More about our weather records

Advertising

Kolkata Weather History for the Previous 24 Hours

 ConditionsComfort  
Time TempWeatherWind HumidityBarometerVisibility
3:00 PM
Mon, Feb 8
84 °FScattered clouds.9 mph55%29.86 "Hg2 mi
2:30 PM84 °FScattered clouds.8 mph55%29.86 "Hg2 mi
2:00 PM84 °FScattered clouds.8 mph55%29.89 "Hg2 mi
11:30 AM82 °FScattered clouds.9 mph58%29.95 "Hg1 mi
10:30 AM79 °FClear.6 mph61%29.98 "Hg1 mi
10:00 AM77 °FClear.7 mph61%29.98 "Hg1 mi
9:30 AM73 °FFog.6 mph69%29.98 "Hg1 mi
9:00 AM72 °FFog.3 mph78%30.01 "Hg1 mi
8:30 AM70 °FFog.3 mph83%29.98 "Hg1 mi
7:30 AM64 °FFog.No wind94%29.98 "Hg1 mi
6:30 AM63 °FFog.No wind94%29.95 "Hg1 mi
6:00 AM63 °FFog.No wind88%29.92 "Hg1 mi
5:30 AM64 °FFog.No wind88%29.92 "Hg1 mi
4:30 AM64 °FFog.No wind88%29.92 "Hg1 mi
4:00 AM64 °FFog.No wind88%29.92 "Hg1 mi
3:30 AM64 °FFog.No wind88%29.92 "Hg1 mi
3:00 AM64 °FFog.No wind88%29.92 "Hg1 mi
2:30 AM66 °FFog.No wind83%29.92 "Hg1 mi
2:00 AM66 °FFog.No wind83%29.95 "Hg1 mi
1:30 AM66 °FFog.No wind83%29.95 "Hg1 mi
1:00 AM68 °FFog.No wind78%29.95 "Hg1 mi
12:30 AM68 °FFog.No wind78%29.95 "Hg1 mi
12:00 AM68 °FFog.No wind78%29.95 "Hg1 mi
11:30 PM
Sun, Feb 7
68 °FFog.No wind78%29.95 "Hg1 mi
11:00 PM70 °FPassing clouds.No wind73%29.95 "Hg1 mi
10:30 PM70 °FPassing clouds.No wind73%29.95 "Hg1 mi
10:00 PM70 °FPassing clouds.No wind69%29.95 "Hg1 mi
9:30 PM70 °FPassing clouds.No wind69%29.95 "Hg1 mi
9:00 PM70 °FPassing clouds.No wind69%29.95 "Hg1 mi
8:30 PM73 °FPassing clouds.No wind61%29.95 "Hg1 mi
8:00 PM73 °FPassing clouds.No wind61%29.95 "Hg1 mi
7:30 PM73 °FPassing clouds.No wind61%29.92 "Hg1 mi
7:00 PM75 °FPassing clouds.3 mph50%29.92 "Hg1 mi
6:30 PM75 °FPassing clouds.No wind50%29.92 "Hg1 mi
6:00 PM75 °FPassing clouds.5 mph47%29.89 "Hg1 mi
5:30 PM75 °FScattered clouds.6 mph47%29.89 "Hg1 mi
5:00 PM79 °FScattered clouds.7 mph42%29.89 "Hg1 mi
4:30 PM81 °FScattered clouds.8 mph42%29.89 "Hg1 mi
4:00 PM82 °FScattered clouds.6 mph37%29.89 "Hg1 mi
Weather by CustomWeather, © 2016

See weather overviewHow to use our weather pages